Regional Weather Roundup
Issued by NWS Sterling, VA

Home | Current Version | Previous Version | Text Only | Print | Product List | Glossary On
Versions: 1 2 3 4 5 6 7 8 9 10 11 12 13 14 15 16 17 18 19 20 21 22 23 24 25 26 27
000
ASUS41 KLWX 011510
RWRLWX

REGIONAL WEATHER ROUNDUP
NATIONAL WEATHER SERVICE BALTIMORE MD/WASHINGTON DC
1100 AM EDT SAT OCT 01 2016

Note: "FAIR" indicates few or no clouds below 12,000 feet
with no significant weather and/or obstructions to visibility.
 TC=TEMPERATURE CELSIUS

 * =Non NWS site. Station does not report precipitation (e.g. rain,
    snow, etc.), thunder, or fog.

DCZ001-MDZ009-015-VAZ040>042-051-053>054-011600-
WASHINGTON METRO

CITY           SKY/WX    TMP DP  RH WIND       PRES   REMARKS
WASHINGTON NAT CLOUDY    65  64  97 NE10      30.13S
DULLES         DRIZZLE   63  61  93 NE9       30.13S FOG
ANDREWS AFB    LGT RAIN  64  63  94 NE8       30.11S
FT BELVOIR     CLOUDY    64  63  94 VRB2      30.11S
QUANTICO       CLOUDY    67  64  90 NE13      30.11F
COLLEGE PARK*  CLOUDY    61  61 100 NE5       30.13R
LEESBURG*      CLOUDY    61  61 100 NE6       30.14F FOG
MANASSAS*      CLOUDY    64  63  94 N6        30.12F FOG
GAITHERSBURG*  CLOUDY    61 N/A N/A E5        30.18S

$$

MDZ006>007-011-014-011600-
BALTIMORE METRO

CITY           SKY/WX    TMP DP  RH WIND       PRES   REMARKS
BWI AIRPORT    RAIN      61  60  97 E14       30.14R FOG
MD SCIENCE CTR   N/A     61  59  93 MISG      30.16R
MARTIN STATE   CLOUDY    63  63 100 NE9       30.16S
ANNAPOLIS      HVY RAIN  65  63  93 NE6       30.13S VSB 1/2
FORT MEADE*    CLOUDY    61  59  94 E3        30.17R

$$

MDZ012-015-019>023-011600-
MARYLAND EASTERN SHORE

CITY           SKY/WX    TMP DP  RH WIND       PRES   REMARKS
OCEAN CITY     CLOUDY    68  68 100 E10       30.12S
SALISBURY      LGT RAIN  68  68 100 E13       30.10F FOG
BAY BRIDGE AP* CLOUDY    64  63  94 MISG      30.13S FOG
EASTON*        CLOUDY    66  64  94 E8        30.16S FOG

$$

MDZ017>025-011600-
SOUTHERN MARYLAND

CITY           SKY/WX    TMP DP  RH WIND       PRES   REMARKS
PATUXENT RIVER LGT RAIN  69  67  93 VRB3      30.10R
ST INIGOES     CLOUDY    71  69  93 E7        30.08F
LEONARDTOWN*   NOT AVBL

$$

MDZ003>005-011600-
NORTH CENTRAL MARYLAND

CITY           SKY/WX    TMP DP  RH WIND       PRES   REMARKS
FREDERICK*     LGT RAIN  61  61 100 N7        30.18S FOG
HAGERSTOWN APT CLOUDY    58  55  90 N8        30.16S

$$

MDZ501>502-011600-
WESTERN MARYLAND

CITY           SKY/WX    TMP DP  RH WIND       PRES   REMARKS
OAKLAND*         N/A     54  54 100 SE9       30.15R FOG
CUMBERLAND*    CLOUDY    61  61 100 N5        30.19S

$$

VAZ025>031-011600-
SHENANDOAH VALLEY

CITY           SKY/WX    TMP DP  RH WIND       PRES   REMARKS
WINCHESTER*    CLOUDY    59  59 100 NE5       30.15S FOG
FRONT ROYAL*   CLOUDY    59  59 100 N5        30.13F
LURAY*         CLOUDY    63  63 100 N7        30.13F
NEW MARKET*    CLOUDY   N/A N/A N/A N6        30.13S
STAUNTON*      CLOUDY    60  59  96 NE5       30.14F FOG
WAYNESBORO*    CLOUDY    60  59  97 NE5       30.13S

$$

WVZ021-048>050-054>055-011600-
EASTERN WEST VIRGINIA PANHANDLE

CITY           SKY/WX    TMP DP  RH WIND       PRES   REMARKS
MARTINSBURG    CLOUDY    58  57  97 NE6       30.15S FOG
PETERSBURG*    CLOUDY    60  59  96 N5        30.14S FOG

$$

VAZ036>039-050-011600-
CENTRAL FOOTHILLS

CITY           SKY/WX    TMP DP  RH WIND       PRES   REMARKS
CHARLOTTESVILL CLOUDY    65  61  87 NE7       30.11S
CULPEPER*      CLOUDY    64  64  98 CALM      30.13S FOG
ORANGE*          N/A     64  64 100 NW6       30.13S FOG
GORDONSVILLE*  CLOUDY    64  63  94 NE8       30.11R
WARRENTON*     CLOUDY    64  60  86 NE6       30.12S FOG

$$

VAZ055>057-011600-
NORTH AND CENTRAL PIEDMONT

CITY           SKY/WX    TMP DP  RH WIND       PRES   REMARKS
FREDERICKSBRG* CLOUDY    67  67 100 N3        30.09S
STAFFORD*      CLOUDY    65  65 100 N8        30.14S

$$

NCZ024-NYZ072-PAZ021-071-VAZ022-071-011600-
OTHER REGIONAL OBSERVATIONS

CITY           SKY/WX    TMP DP  RH WIND       PRES   REMARKS
NEW YORK CITY  CLOUDY    60  54  80 VRB5      30.24S
PHILADELPHIA   CLOUDY    61  58  90 NE10      30.18F
PITTSBURGH     PTSUNNY   62  59  90 CALM      30.10S
ROANOKE        PTSUNNY   70  60  70 CALM      30.13S
RICHMOND       CLOUDY    74  71  91 NW8       30.08R
RALEIGH        MOSUNNY   73  66  78 VRB3      30.09R

$$

ANZ530>537-011600-
MARINE OBSERVATIONS

STATION/POSITION TIME  TEMP    WIND        PRES
                       AIR SEA DIR/SP/G
                 (UTC) (F)     (DEG/KT/KT) (MB)
THOMAS PT LIGHT  1500   65 71   60/ 11/ 14 1021.3R
BALT KEY BRIDGE  1436   61      60/ 11/ 13 1020.8R
COVE POINT       1436   68     110/ 14/ 18 1019.5F
LEWISETTA        1436   71 71  120/ 16/ 18 1018.2F
SOLOMONS ISLAND  1436   69 73   90/ 15/ 17   N/A
PINEY POINT      1448          120/ 14/ 16   N/A

$$





USA.gov is the U.S. government's official web portal to all federal, state and local government web resources and services.